JZA7 CYUL-CYOW

Flight info

Callsign JZA7
Flight time 0h 25m
Altitude 16000
Route KESKA DCT ALSET RIVER4
Aircraft DH8D/M-SDE2E3FGRY/H

Departure

Time 2026-04-30 20:42
Airport Montreal / Pierre Elliott Trudeau International Airport (CYUL)

Arrival

Time 2026-04-30 21:07
Airport Ottawa Macdonald-Cartier International Airport (CYOW)
Time Latitude Longitude Altitude Speed Heading
2026-04-30 20:23 45.46061 -73.74783 111 ft 0 kts 178°
2026-04-30 20:32 45.46060 -73.74783 111 ft 0 kts 178°
2026-04-30 20:33 45.46077 -73.74784 111 ft 2 kts 178°
2026-04-30 20:33 45.46091 -73.74785 111 ft 2 kts 178°
2026-04-30 20:34 45.46117 -73.74786 111 ft 2 kts 176°
2026-04-30 20:34 45.46143 -73.74803 111 ft 2 kts 131°
2026-04-30 20:35 45.46151 -73.74821 111 ft 2 kts 110°
2026-04-30 20:35 45.46154 -73.74841 111 ft 1 kts 89°
2026-04-30 20:35 45.46154 -73.74847 111 ft 0 kts 87°
2026-04-30 20:36 45.46154 -73.74846 111 ft 0 kts 87°
2026-04-30 20:37 45.46156 -73.74777 111 ft 15 kts 87°
2026-04-30 20:37 45.46151 -73.74577 111 ft 22 kts 122°
2026-04-30 20:37 45.46127 -73.74342 111 ft 26 kts 87°
2026-04-30 20:37 45.46143 -73.74067 111 ft 29 kts 70°
2026-04-30 20:38 45.46288 -73.73852 111 ft 30 kts 36°
2026-04-30 20:38 45.46454 -73.73650 112 ft 32 kts 44°
2026-04-30 20:38 45.46606 -73.73434 113 ft 28 kts 44°
2026-04-30 20:39 45.46856 -73.73102 115 ft 21 kts 41°
2026-04-30 20:39 45.46967 -73.72962 117 ft 21 kts 38°
2026-04-30 20:39 45.47075 -73.72822 118 ft 21 kts 44°
2026-04-30 20:40 45.47290 -73.72529 123 ft 20 kts 39°
2026-04-30 20:40 45.47395 -73.72420 125 ft 17 kts 33°
2026-04-30 20:40 45.47496 -73.72274 127 ft 30 kts 47°
2026-04-30 20:41 45.47814 -73.71815 134 ft 23 kts 94°
2026-04-30 20:41 45.47646 -73.71658 135 ft 39 kts 198°
2026-04-30 20:41 45.47322 -73.72099 129 ft 113 kts 223°
2026-04-30 20:41 45.46558 -73.73103 337 ft 170 kts 228°
2026-04-30 20:42 45.45796 -73.74217 1274 ft 157 kts 239°
2026-04-30 20:42 45.45688 -73.75590 1924 ft 147 kts 300°
2026-04-30 20:42 45.47261 -73.77740 3109 ft 162 kts 311°
2026-04-30 20:43 45.47977 -73.78930 3812 ft 163 kts 308°
2026-04-30 20:43 45.48661 -73.80216 4475 ft 166 kts 304°
2026-04-30 20:43 45.49314 -73.81576 5145 ft 168 kts 302°
2026-04-30 20:44 45.50613 -73.84605 6156 ft 193 kts 299°
2026-04-30 20:44 45.51266 -73.86261 6818 ft 196 kts 297°
2026-04-30 20:44 45.52583 -73.89730 8126 ft 205 kts 296°
2026-04-30 20:45 45.53909 -73.93340 9471 ft 211 kts 295°
2026-04-30 20:45 45.54575 -73.95180 10140 ft 214 kts 295°
2026-04-30 20:45 45.55262 -73.97089 10725 ft 222 kts 294°
2026-04-30 20:46 45.57415 -74.03135 12584 ft 235 kts 294°
2026-04-30 20:46 45.58162 -74.05242 13255 ft 238 kts 293°
2026-04-30 20:47 45.59660 -74.09477 14570 ft 244 kts 292°
2026-04-30 20:47 45.60425 -74.11645 15200 ft 248 kts 292°
2026-04-30 20:48 45.61571 -74.16435 15790 ft 273 kts 268°
2026-04-30 20:48 45.61537 -74.19280 15837 ft 296 kts 265°
2026-04-30 20:48 45.61477 -74.22281 15843 ft 314 kts 265°
2026-04-30 20:48 45.61418 -74.25459 15844 ft 329 kts 266°
2026-04-30 20:49 45.61363 -74.28816 15840 ft 341 kts 266°
2026-04-30 20:49 45.61312 -74.32188 15830 ft 347 kts 266°
2026-04-30 20:49 45.61264 -74.35635 15819 ft 344 kts 266°
2026-04-30 20:50 45.61170 -74.42361 15828 ft 337 kts 266°
2026-04-30 20:50 45.61124 -74.45720 15826 ft 335 kts 266°
2026-04-30 20:50 45.61075 -74.48995 15823 ft 332 kts 266°
2026-04-30 20:50 45.60818 -74.52242 15828 ft 328 kts 258°
2026-04-30 20:51 45.60401 -74.55431 15823 ft 328 kts 257°
2026-04-30 20:51 45.59555 -74.61808 15821 ft 326 kts 257°
2026-04-30 20:51 45.59137 -74.64969 15824 ft 326 kts 257°
2026-04-30 20:52 45.58717 -74.68146 15825 ft 325 kts 257°
2026-04-30 20:52 45.58295 -74.71342 15825 ft 325 kts 257°
2026-04-30 20:52 45.57461 -74.77665 15828 ft 324 kts 257°
2026-04-30 20:53 45.57055 -74.80805 15827 ft 324 kts 257°
2026-04-30 20:53 45.56652 -74.83955 15831 ft 324 kts 257°
2026-04-30 20:53 45.56229 -74.87136 15832 ft 324 kts 257°
2026-04-30 20:54 45.54760 -74.93098 15862 ft 317 kts 236°
2026-04-30 20:54 45.53577 -74.95737 15845 ft 318 kts 236°
2026-04-30 20:54 45.52383 -74.98387 15839 ft 318 kts 236°
2026-04-30 20:55 45.50039 -75.03561 14351 ft 314 kts 236°
2026-04-30 20:55 45.48864 -75.06158 13427 ft 312 kts 237°
2026-04-30 20:55 45.47714 -75.08704 12638 ft 306 kts 237°
2026-04-30 20:56 45.45500 -75.13612 11359 ft 291 kts 237°
2026-04-30 20:56 45.44424 -75.16000 10636 ft 288 kts 237°
2026-04-30 20:56 45.42295 -75.20724 9301 ft 275 kts 238°
2026-04-30 20:57 45.41287 -75.22952 8942 ft 261 kts 239°
2026-04-30 20:57 45.40319 -75.25094 8369 ft 256 kts 239°
2026-04-30 20:57 45.39370 -75.27193 7688 ft 255 kts 240°
2026-04-30 20:58 45.37526 -75.31267 6751 ft 242 kts 240°
2026-04-30 20:58 45.36628 -75.33251 6174 ft 240 kts 241°
2026-04-30 20:58 45.35731 -75.35235 5605 ft 239 kts 241°
2026-04-30 20:58 45.34840 -75.37201 5213 ft 230 kts 241°
2026-04-30 20:59 45.32363 -75.39467 4403 ft 227 kts 182°
2026-04-30 20:59 45.30818 -75.39288 4058 ft 218 kts 176°
2026-04-30 21:00 45.27951 -75.38945 3552 ft 200 kts 192°
2026-04-30 21:00 45.25677 -75.40850 3030 ft 187 kts 221°
2026-04-30 21:01 45.23577 -75.43073 2419 ft 186 kts 221°
2026-04-30 21:01 45.22576 -75.44123 2273 ft 171 kts 221°
2026-04-30 21:01 45.21767 -75.46515 1627 ft 138 kts 303°
2026-04-30 21:02 45.22240 -75.47648 1285 ft 130 kts 295°
2026-04-30 21:02 45.22610 -75.48801 1030 ft 129 kts 295°
2026-04-30 21:02 45.22996 -75.49956 841 ft 128 kts 298°
2026-04-30 21:02 45.23521 -75.50960 718 ft 129 kts 309°
2026-04-30 21:03 45.24062 -75.51960 696 ft 124 kts 303°
2026-04-30 21:03 45.24554 -75.52921 796 ft 120 kts 307°
2026-04-30 21:03 45.25053 -75.53846 973 ft 118 kts 306°
2026-04-30 21:03 45.25550 -75.54806 1119 ft 123 kts 307°
2026-04-30 21:04 45.26065 -75.55791 1325 ft 124 kts 306°
2026-04-30 21:04 45.26580 -75.56786 1535 ft 126 kts 307°
2026-04-30 21:04 45.27607 -75.58776 1618 ft 127 kts 306°
2026-04-30 21:05 45.28114 -75.59769 1383 ft 120 kts 306°
2026-04-30 21:05 45.28599 -75.60693 1231 ft 117 kts 306°
2026-04-30 21:05 45.29078 -75.61623 1078 ft 117 kts 307°
2026-04-30 21:05 45.29556 -75.62547 922 ft 116 kts 306°
2026-04-30 21:06 45.30048 -75.63484 768 ft 120 kts 305°
2026-04-30 21:06 45.30544 -75.64448 595 ft 120 kts 306°
2026-04-30 21:06 45.31024 -75.65385 402 ft 114 kts 306°
2026-04-30 21:06 45.31450 -75.66203 373 ft 92 kts 306°
2026-04-30 21:07 45.31740 -75.66765 380 ft 46 kts 306°
2026-04-30 21:07 45.31888 -75.67059 382 ft 37 kts 308°
2026-04-30 21:07 45.32033 -75.67316 383 ft 12 kts 308°
2026-04-30 21:07 45.32053 -75.67268 383 ft 15 kts 76°
2026-04-30 21:08 45.32125 -75.67124 382 ft 16 kts 105°
2026-04-30 21:08 45.32064 -75.66989 382 ft 15 kts 128°
2026-04-30 21:08 45.31998 -75.66868 381 ft 15 kts 127°
2026-04-30 21:08 45.31937 -75.66748 380 ft 15 kts 124°
2026-04-30 21:09 45.31879 -75.66628 379 ft 11 kts 123°
2026-04-30 21:09 45.31870 -75.66512 378 ft 12 kts 80°
2026-04-30 21:09 45.31892 -75.66388 377 ft 13 kts 66°
2026-04-30 21:09 45.31960 -75.66310 377 ft 12 kts
2026-04-30 21:10 45.32028 -75.66307 377 ft 4 kts 349°
2026-04-30 21:10 45.32046 -75.66326 377 ft 2 kts 294°
2026-04-30 21:10 45.32053 -75.66346 377 ft 2 kts 294°
2026-04-30 21:10 45.32058 -75.66364 377 ft 1 kts 293°
2026-04-30 21:11 45.32062 -75.66378 378 ft 1 kts 293°
2026-04-30 21:11 45.32065 -75.66388 378 ft 0 kts 292°
2026-04-30 21:11 45.32066 -75.66390 378 ft 0 kts 292°